Location: Asheville, NC
(35.6000°N, 82.5500°W)
Time: 08:25:25
(UTC-04:00)

AO-7 - Visible Passes

Search period start: 24 April 2018 00:00
Search period end: 04 May 2018 00:00
Orbit: 1439 x 1459 km, 101.7° (Epoch: 23 April)

Date Brightness Start Highest point End Pass type
(mag) Time Alt. Az. Time Alt. Az. Time Alt. Az.
24 Apr ? 03:44:24 10° NE 03:50:27 22° E 03:56:28 10° SE visible
24 Apr ? 05:35:30 10° NNE 05:43:44 70° WNW 05:51:58 10° SSW visible
25 Apr ? 04:35:47 10° NNE 04:43:49 51° ESE 04:51:49 10° S visible
26 Apr ? 03:37:48 10° NE 03:43:22 19° E 03:48:54 10° SE visible
26 Apr ? 05:28:29 10° NNE 05:36:46 77° WNW 05:45:04 10° SSW visible
27 Apr ? 04:28:54 10° NNE 04:36:47 46° E 04:44:39 10° S visible
28 Apr ? 03:31:19 10° NE 03:36:17 17° E 03:41:14 10° SE visible
28 Apr ? 05:21:28 10° NNE 05:29:48 85° WNW 05:38:08 10° SSW visible
29 Apr ? 04:22:02 10° NNE 04:29:46 41° E 04:37:28 10° SSE visible
30 Apr ? 03:24:58 10° ENE 03:29:12 15° E 03:33:25 10° ESE visible
30 Apr ? 05:14:29 10° NNE 05:22:50 88° ESE 05:31:11 10° SSW visible
01 May ? 04:15:12 10° NE 04:22:44 37° E 04:30:14 10° SSE visible
01 May ? 06:07:45 10° N 06:15:28 45° WNW 06:23:13 10° SW visible
02 May ? 03:18:51 10° ENE 03:22:06 13° E 03:25:20 10° ESE visible
02 May ? 05:07:30 10° NNE 05:15:51 81° ESE 05:24:11 10° SSW visible
03 May ? 04:08:24 10° NE 04:15:42 33° E 04:22:58 10° SSE visible
03 May ? 06:00:40 10° N 06:08:33 50° WNW 06:16:27 10° SW visible
